TimeCET,TemperatureF,Dew PointF,Humidity,Sea Level PressureIn,VisibilityMPH,Wind Direction,Wind SpeedMPH,Gust SpeedMPH,PrecipitationIn,Events,Conditions,WindDirDegrees,DateUTC
1:00 AM,32,28,77,30.33,,NE,2.2,,,,,40,2013-02-28 00:00:00
5:15 AM,32.0,28.4,87,30.30,6.2,North,2.3,-,N/A,,Mostly Cloudy,10,2013-02-28 04:15:00
5:45 AM,33.8,26.6,75,30.30,6.2,NNE,2.3,-,N/A,,Mostly Cloudy,20,2013-02-28 04:45:00
6:00 AM,-9999,-9999,N/A,-9999,6.2,NNE,5.8,-,N/A,,Mostly Cloudy,20,2013-02-28 05:00:00
6:15 AM,32.0,26.6,80,30.30,5.0,Calm,Calm,-,N/A,,Mostly Cloudy,0,2013-02-28 05:15:00
7:00 AM,31,26,74,30.34,4,Calm,Calm,,,,Partly Cloudy,,2013-02-28 06:00:00
7:36 AM,32.0,28.4,87,30.36,-9999.0,East,3.5,-,N/A,,Partly Cloudy,100,2013-02-28 06:36:00
7:45 AM,32.0,28.4,87,30.33,-9999.0,East,3.5,-,N/A,,Partly Cloudy,100,2013-02-28 06:45:00
8:15 AM,33.8,28.4,81,30.33,-9999.0,ESE,3.5,-,N/A,,Partly Cloudy,110,2013-02-28 07:15:00
8:45 AM,35.6,28.4,75,30.33,4.3,Calm,Calm,-,N/A,,Mostly Cloudy,0,2013-02-28 07:45:00
9:00 AM,-9999,-9999,N/A,-9999,-9999.0,Variable,3.5,-,N/A,,Dust Whirls,0,2013-02-28 08:00:00
9:15 AM,39.2,32.0,75,30.36,3.7,West,2.3,-,N/A,,Mostly Cloudy,280,2013-02-28 08:15:00
9:45 AM,41.0,33.8,76,30.36,4.3,West,2.3,-,N/A,,Mostly Cloudy,270,2013-02-28 08:45:00
10:15 AM,42.8,33.8,70,30.36,3.7,West,4.6,-,N/A,,Scattered Clouds,260,2013-02-28 09:15:00
10:45 AM,42.8,35.6,76,30.36,3.7,WSW,5.8,-,N/A,,Mostly Cloudy,250,2013-02-28 09:45:00
11:15 AM,44.6,35.6,71,30.33,5.0,SW,5.8,-,N/A,,Mostly Cloudy,230,2013-02-28 10:15:00
11:45 AM,44.6,35.6,71,30.33,5.0,WSW,6.9,-,N/A,,Mostly Cloudy,250,2013-02-28 10:45:00
12:00 PM,-9999,-9999,N/A,-9999,5.0,Variable,3.5,-,N/A,,Mostly Cloudy,0,2013-02-28 11:00:00
12:15 PM,44.6,33.8,66,30.33,6.2,SW,5.8,-,N/A,,Partly Cloudy,230,2013-02-28 11:15:00
12:45 PM,46.4,33.8,62,30.30,6.2,SW,5.8,-,N/A,,Partly Cloudy,220,2013-02-28 11:45:00
1:00 PM,46,34,53,30.32,6,SW,6.7,,,,Partly Cloudy,220,2013-02-28 12:00:00
1:15 PM,46.4,33.8,62,30.30,6.2,SW,6.9,-,N/A,,Partly Cloudy,220,2013-02-28 12:15:00
1:45 PM,48.2,35.6,62,30.30,6.2,SSW,8.1,-,N/A,,Partly Cloudy,210,2013-02-28 12:45:00
2:15 PM,46.4,35.6,66,30.27,6.2,SW,6.9,-,N/A,,Partly Cloudy,230,2013-02-28 13:15:00
2:45 PM,46.4,35.6,66,30.27,6.2,SW,6.9,-,N/A,,Partly Cloudy,220,2013-02-28 13:45:00
3:15 PM,48.2,35.6,62,30.27,6.2,SW,8.1,-,N/A,,Scattered Clouds,220,2013-02-28 14:15:00
4:15 PM,46.4,35.6,66,30.27,6.2,SSW,8.1,-,N/A,,Scattered Clouds,200,2013-02-28 15:15:00
4:45 PM,46.4,35.6,66,30.27,6.2,SW,8.1,-,N/A,,Scattered Clouds,230,2013-02-28 15:45:00
5:00 PM,-9999,-9999,N/A,-9999,-9999.0,North,-9999.0,-,N/A,,Unknown,0,2013-02-28 16:00:00
7:00 PM,37,34,85,30.27,,SSW,6.7,,,,,210,2013-02-28 18:00:00